Location: Eaton
(41.3139°N, 82.0207°W)
Time: 06:31:35
(UTC+00:00)

USA 308 - Pass Details

Date: 17 June 2021
Orbit: 566 x 576 km, 54.0° (Epoch: 13 July)

Event Time Altitude Azimuth Distance (km) Brightness Sun altitude
Exits shadow 08:48:39 11° 256° (WSW) 1,802 4.9 -10.5°
Maximum altitude 08:52:32 43° 328° (NNW) 807 3.8 -10.0°
Drops below altitude 10° 08:56:35 10° 40° (NE) 1,865 7.2 -9.4°
Sets 08:58:56 0° 47° (NE) 2,765 8.9 -9.1°
